"read_dt","SO2 (ppb)","flags","PMT voltage (V)","lamp voltage (V)","lamp intensity (Hz)","internal temp (C)","react chamber temp (C)","sample flow (l/min)","pres (mmHg)","SO2 bkg (ppb)","SO2 coefficient"
2014-02-09 00:00:00,3761E-2,5C000495,-0725,1250,8154,999.9,034.5,0.200,776.3,01.15,0.508
2014-02-09 00:01:00,3717E-2,5C000495,-0725,1251,8109,999.9,034.5,0.200,776.3,01.15,0.508
2014-02-09 00:02:00,3752E-2,5C000495,-0725,1252,8020,999.9,034.5,0.200,776.3,01.15,0.508
2014-02-09 00:03:00,3735E-2,5C000495,-0725,1257,8053,999.9,034.5,0.200,776.3,01.15,0.508
2014-02-09 00:04:00,3702E-2,5C000495,-0725,1261,7986,999.9,034.5,0.200,776.3,01.15,0.508
2014-02-09 00:05:00,3783E-2,5C000495,-0725,1265,8020,999.9,034.5,0.200,776.3,01.15,0.508
2014-02-09 00:06:00,3699E-2,5C000495,-0725,1265,7809,999.9,034.5,0.200,776.3,01.15,0.508
2014-02-09 00:07:00,3701E-2,5C000495,-0725,1265,8019,999.9,034.5,0.200,776.3,01.15,0.508
2014-02-09 00:08:00,3705E-2,5C000495,-0725,1267,7986,999.9,034.5,0.200,776.3,01.15,0.508
2014-02-09 00:09:00,3703E-2,5C000495,-0725,1270,7772,999.9,034.6,0.200,776.4,01.15,0.508
2014-02-09 00:10:00,3761E-2,5C000495,-0725,1271,7922,999.9,034.5,0.200,776.3,01.15,0.508
2014-02-09 00:11:00,3728E-2,5C000495,-0725,1274,7812,999.9,034.5,0.200,776.3,01.15,0.508
2014-02-09 00:12:00,3703E-2,5C000495,-0725,1273,7854,999.9,034.6,0.200,776.3,01.15,0.508
2014-02-09 00:13:00,3721E-2,5C000495,-0725,1271,7815,999.9,034.5,0.200,776.3,01.15,0.508
2014-02-09 00:14:00,3676E-2,5C000495,-0725,1273,7766,999.9,034.5,0.200,776.3,01.15,0.508
2014-02-09 00:15:00,3726E-2,5C000495,-0725,1275,7926,999.9,034.5,0.200,776.3,01.15,0.508
2014-02-09 00:16:00,3690E-2,5C000495,-0725,1273,7768,999.9,034.6,0.200,776.3,01.15,0.508
2014-02-09 00:17:00,3712E-2,5C000495,-0725,1273,7841,999.9,034.5,0.200,776.4,01.15,0.508
2014-02-09 00:18:00,3756E-2,5C000495,-0725,1272,7838,999.9,034.6,0.200,776.4,01.15,0.508
2014-02-09 00:19:00,3698E-2,5C000495,-0725,1275,7782,999.9,034.6,0.200,776.4,01.15,0.508
2014-02-09 00:20:00,3717E-2,5C000495,-0725,1273,7818,999.9,034.5,0.200,776.5,01.15,0.508
2014-02-09 00:21:00,3751E-2,5C000495,-0725,1273,7766,999.9,034.5,0.200,776.5,01.15,0.508
2014-02-09 00:22:00,3720E-2,5C000495,-0725,1276,7886,999.9,034.6,0.200,776.5,01.15,0.508
2014-02-09 00:23:00,3672E-2,5C000495,-0725,1275,7820,999.9,034.6,0.200,776.5,01.15,0.508
2014-02-09 00:24:00,3741E-2,5C000495,-0725,1273,7846,999.9,034.6,0.200,776.5,01.15,0.508
2014-02-09 00:25:00,3726E-2,5C000495,-0725,1272,7844,999.9,034.6,0.200,776.5,01.15,0.508
2014-02-09 00:26:00,3731E-2,5C000495,-0725,1272,7851,999.9,034.6,0.200,776.5,01.15,0.508
2014-02-09 00:27:00,3730E-2,5C000495,-0725,1274,7849,999.9,034.6,0.200,776.5,01.15,0.508
2014-02-09 00:28:00,3835E-2,5C000495,-0725,1273,7891,999.9,034.6,0.200,776.5,01.15,0.508
2014-02-09 00:29:00,3865E-2,5C000495,-0725,1273,7817,999.9,034.6,0.200,776.5,01.15,0.508
2014-02-09 00:30:00,3756E-2,5C000495,-0725,1276,7779,999.9,034.5,0.200,776.5,01.15,0.508
2014-02-09 00:31:00,3733E-2,5C000495,-0725,1277,7799,999.9,034.5,0.200,776.5,01.15,0.508
2014-02-09 00:32:00,3787E-2,5C000495,-0725,1277,7848,999.9,034.6,0.200,776.5,01.15,0.508
2014-02-09 00:33:00,3857E-2,5C000495,-0725,1277,7787,999.9,034.6,0.200,776.5,01.15,0.508
2014-02-09 00:34:00,3787E-2,5C000495,-0725,1277,7766,999.9,034.6,0.200,776.5,01.15,0.508
2014-02-09 00:35:00,3779E-2,5C000495,-0725,1276,7904,999.9,034.6,0.200,776.5,01.15,0.508
2014-02-09 00:36:00,3812E-2,5C000495,-0725,1279,7771,999.9,034.6,0.200,776.4,01.15,0.508
2014-02-09 00:37:00,3781E-2,5C000495,-0725,1281,7620,999.9,034.5,0.200,776.4,01.15,0.508
2014-02-09 00:38:00,3846E-2,5C000495,-0725,1280,7740,999.9,034.6,0.200,776.5,01.15,0.508
2014-02-09 00:39:00,3753E-2,5C000495,-0725,1281,7719,999.9,034.6,0.200,776.4,01.15,0.508
2014-02-09 00:40:00,3777E-2,5C000495,-0725,1283,7784,999.9,034.6,0.200,776.4,01.15,0.508
2014-02-09 00:41:00,3800E-2,5C000495,-0725,1286,7731,999.9,034.6,0.200,776.4,01.15,0.508
2014-02-09 00:42:00,3771E-2,5C000495,-0725,1288,7744,999.9,034.6,0.200,776.4,01.15,0.508
2014-02-09 00:43:00,3780E-2,5C000495,-0725,1288,7722,999.9,034.6,0.200,776.4,01.15,0.508
2014-02-09 00:44:00,3794E-2,5C000495,-0725,1290,7678,999.9,034.6,0.200,776.4,01.15,0.508
2014-02-09 00:45:00,3800E-2,5C000495,-0725,1290,7742,999.9,034.6,0.200,776.4,01.15,0.508
2014-02-09 00:46:00,3735E-2,5C000495,-0725,1290,7597,999.9,034.6,0.200,776.4,01.15,0.508
2014-02-09 00:47:00,3754E-2,5C000495,-0725,1290,7624,999.9,034.5,0.200,776.4,01.15,0.508
2014-02-09 00:48:00,3774E-2,5C000495,-0725,1291,7688,999.9,034.6,0.200,776.4,01.15,0.508
2014-02-09 00:49:00,3766E-2,5C000495,-0725,1291,7559,999.9,034.6,0.200,776.4,01.15,0.508
2014-02-09 00:50:00,3736E-2,5C000495,-0725,1293,7602,999.9,034.6,0.200,776.4,01.15,0.508
2014-02-09 00:51:00,3775E-2,5C000495,-0725,1295,7720,999.9,034.6,0.200,776.4,01.15,0.508
2014-02-09 00:52:00,3802E-2,5C000495,-0725,1294,7696,999.9,034.6,0.200,776.4,01.15,0.508
2014-02-09 00:53:00,3762E-2,5C000495,-0725,1291,7664,999.9,034.6,0.200,776.4,01.15,0.508
2014-02-09 00:54:00,3780E-2,5C000495,-0725,1292,7594,999.9,034.6,0.200,776.4,01.15,0.508
2014-02-09 00:55:00,3754E-2,5C000495,-0725,1292,7682,999.9,034.6,0.200,776.4,01.15,0.508
2014-02-09 00:56:00,3735E-2,5C000495,-0725,1296,7663,999.9,034.6,0.200,776.4,01.15,0.508
2014-02-09 00:57:00,3770E-2,5C000495,-0725,1298,7594,999.9,034.6,0.200,776.4,01.15,0.508
2014-02-09 00:58:00,3758E-2,5C000495,-0725,1299,7613,999.9,034.6,0.200,776.4,01.15,0.508
2014-02-09 00:59:00,3768E-2,5C000495,-0725,1302,7497,999.9,034.6,0.200,776.4,01.15,0.508
2014-02-09 01:00:00,3752E-2,5C000495,-0725,1304,7511,999.9,034.6,0.200,776.4,01.15,0.508
2014-02-09 01:01:00,3747E-2,5C000495,-0725,1302,7469,999.9,034.6,0.200,776.4,01.15,0.508
2014-02-09 01:02:00,3801E-2,5C000495,-0725,1303,7565,999.9,034.6,0.200,776.4,01.15,0.508
2014-02-09 01:03:00,3769E-2,5C000495,-0725,1306,7533,999.9,034.6,0.200,776.4,01.15,0.508
2014-02-09 01:04:00,3730E-2,5C000495,-0725,1306,7508,999.9,034.6,0.200,776.4,01.15,0.508
2014-02-09 01:05:00,3759E-2,5C000495,-0725,1306,7522,999.9,034.6,0.200,776.4,01.15,0.508
2014-02-09 01:06:00,3739E-2,5C000495,-0725,1305,7563,999.9,034.6,0.200,776.4,01.15,0.508
2014-02-09 01:07:00,3768E-2,5C000495,-0725,1305,7543,999.9,034.6,0.200,776.4,01.15,0.508
2014-02-09 01:08:00,3733E-2,5C000495,-0725,1304,7476,999.9,034.6,0.200,776.4,01.15,0.508
2014-02-09 01:09:00,3781E-2,5C000495,-0725,1307,7438,999.9,034.6,0.200,776.4,01.15,0.508
2014-02-09 01:10:00,3709E-2,5C000495,-0725,1310,7512,999.9,034.6,0.200,776.4,01.15,0.508
2014-02-09 01:11:00,3705E-2,5C000495,-0725,1309,7540,999.9,034.6,0.200,776.3,01.15,0.508
2014-02-09 01:12:00,3713E-2,5C000495,-0725,1310,7643,999.9,034.6,0.200,776.3,01.15,0.508
2014-02-09 01:13:00,4079E-2,5C000495,-0725,1293,7840,999.9,034.6,0.200,776.3,01.15,0.508
2014-02-09 01:14:00,4289E-2,5C000495,-0725,1287,7771,999.9,034.6,0.200,776.3,01.15,0.508
2014-02-09 01:15:00,4316E-2,5C000495,-0725,1288,7746,999.9,034.6,0.200,776.3,01.15,0.508
2014-02-09 01:16:00,4315E-2,5C000495,-0725,1291,7729,999.9,034.6,0.200,776.3,01.15,0.508
2014-02-09 01:17:00,4371E-2,5C000495,-0725,1292,7634,999.9,034.7,0.200,776.3,01.15,0.508
2014-02-09 01:18:00,4292E-2,5C000495,-0725,1296,7716,999.9,034.6,0.200,776.3,01.15,0.508
2014-02-09 01:19:00,4276E-2,5C000495,-0725,1298,7573,999.9,034.6,0.200,776.3,01.15,0.508
2014-02-09 01:20:00,4309E-2,5C000495,-0725,1297,7530,999.9,034.7,0.200,776.3,01.15,0.508
2014-02-09 01:21:00,4301E-2,5C000495,-0725,1300,7440,999.9,034.7,0.200,776.3,01.15,0.508
2014-02-09 01:22:00,4237E-2,5C000495,-0725,1303,7579,999.9,034.6,0.200,776.3,01.15,0.508
2014-02-09 01:23:00,4198E-2,5C000495,-0725,1307,7412,999.9,034.6,0.200,776.3,01.15,0.508
2014-02-09 01:24:00,4182E-2,5C000495,-0725,1309,7471,999.9,034.7,0.200,776.3,01.15,0.508
2014-02-09 01:25:00,4252E-2,5C000495,-0725,1310,7455,999.9,034.7,0.200,776.3,01.15,0.508
2014-02-09 01:26:00,4224E-2,5C000495,-0725,1308,7536,999.9,034.7,0.200,776.3,01.15,0.508
2014-02-09 01:27:00,4205E-2,5C000495,-0725,1308,7614,999.9,034.6,0.200,776.3,01.15,0.508
2014-02-09 01:28:00,4234E-2,5C000495,-0725,1309,7502,999.9,034.7,0.200,776.3,01.15,0.508
2014-02-09 01:29:00,4241E-2,5C000495,-0725,1306,7585,999.9,034.7,0.200,776.3,01.15,0.508
2014-02-09 01:30:00,4291E-2,5C000495,-0725,1305,7457,999.9,034.7,0.200,776.3,01.15,0.508
2014-02-09 01:31:00,4206E-2,5C000495,-0725,1310,7420,999.9,034.6,0.200,776.3,01.15,0.508
2014-02-09 01:32:00,4223E-2,5C000495,-0725,1311,7383,999.9,034.6,0.200,776.3,01.15,0.508
2014-02-09 01:33:00,4238E-2,5C000495,-0725,1313,7452,999.9,034.7,0.200,776.3,01.15,0.508
2014-02-09 01:34:00,4273E-2,5C000495,-0725,1313,7535,999.9,034.7,0.200,776.3,01.15,0.508
2014-02-09 01:35:00,4243E-2,5C000495,-0725,1314,7408,999.9,034.7,0.200,776.3,01.15,0.508
2014-02-09 01:36:00,4245E-2,5C000495,-0725,1315,7526,999.9,034.7,0.200,776.3,01.15,0.508
2014-02-09 01:37:00,4243E-2,5C000495,-0725,1316,7339,999.9,034.7,0.200,776.3,01.15,0.508
2014-02-09 01:38:00,4173E-2,5C000495,-0725,1317,7418,999.9,034.7,0.200,776.3,01.15,0.508
2014-02-09 01:39:00,4233E-2,5C000495,-0725,1318,7442,999.9,034.7,0.200,776.3,01.15,0.508
2014-02-09 01:40:00,4236E-2,5C000495,-0725,1320,7455,999.9,034.7,0.200,776.3,01.15,0.508
2014-02-09 01:41:00,4191E-2,5C000495,-0725,1323,7415,999.9,034.7,0.200,776.3,01.15,0.508
2014-02-09 01:42:00,4228E-2,5C000495,-0725,1324,7356,999.9,034.7,0.200,776.3,01.15,0.508
2014-02-09 01:43:00,4222E-2,5C000495,-0725,1327,7250,999.9,034.7,0.200,776.3,01.15,0.508
2014-02-09 01:44:00,4245E-2,5C000495,-0725,1327,7416,999.9,034.7,0.200,776.3,01.15,0.508
2014-02-09 01:45:00,4340E-2,5C000495,-0725,1328,7261,999.9,034.7,0.200,776.3,01.15,0.508
2014-02-09 01:46:00,4227E-2,5C000495,-0725,1329,7356,999.9,034.7,0.200,776.3,01.15,0.508
2014-02-09 01:47:00,4364E-2,5C000495,-0725,1329,7292,999.9,034.6,0.200,776.3,01.15,0.508
2014-02-09 01:48:00,4236E-2,5C000495,-0725,1330,7292,999.9,034.7,0.200,776.3,01.15,0.508
2014-02-09 01:49:00,4253E-2,5C000495,-0725,1331,7336,999.9,034.7,0.200,776.3,01.15,0.508
2014-02-09 01:50:00,4270E-2,5C000495,-0725,1331,7188,999.9,034.7,0.200,776.3,01.15,0.508
2014-02-09 01:51:00,4269E-2,5C000495,-0725,1334,7260,999.9,034.7,0.200,776.3,01.15,0.508
2014-02-09 01:52:00,4264E-2,5C000495,-0725,1336,7225,999.9,034.7,0.200,776.3,01.15,0.508
2014-02-09 01:53:00,4282E-2,5C000495,-0725,1338,7146,999.9,034.7,0.200,776.3,01.15,0.508
2014-02-09 01:54:00,4322E-2,5C000495,-0725,1339,7260,999.9,034.7,0.200,776.3,01.15,0.508
2014-02-09 01:55:00,4299E-2,5C000495,-0725,1339,7209,999.9,034.7,0.200,776.3,01.15,0.508
2014-02-09 01:56:00,4296E-2,5C000495,-0725,1341,7031,999.9,034.7,0.200,776.3,01.15,0.508
2014-02-09 01:57:00,4268E-2,5C000495,-0725,1341,7180,999.9,034.7,0.200,776.4,01.15,0.508
2014-02-09 01:58:00,4265E-2,5C000495,-0725,1343,7120,999.9,034.7,0.200,776.4,01.15,0.508
2014-02-09 01:59:00,4300E-2,5C000495,-0725,1344,7147,999.9,034.7,0.200,776.4,01.15,0.508
2014-02-09 02:00:00,4275E-2,5C000495,-0725,1345,7147,999.9,034.7,0.200,776.4,01.15,0.508
2014-02-09 02:01:00,4280E-2,5C000495,-0725,1347,7156,999.9,034.7,0.200,776.4,01.15,0.508
2014-02-09 02:02:00,4257E-2,5C000495,-0725,1349,7109,999.9,034.7,0.200,776.4,01.15,0.508
2014-02-09 02:03:00,4268E-2,5C000495,-0725,1350,7049,999.9,034.7,0.200,776.4,01.15,0.508
2014-02-09 02:04:00,4253E-2,5C000495,-0725,1351,7053,999.9,034.7,0.200,776.4,01.15,0.508
2014-02-09 02:05:00,4269E-2,5C000495,-0725,1352,7014,999.9,034.7,0.200,776.4,01.15,0.508
2014-02-09 02:06:00,4227E-2,5C000495,-0725,1352,7059,999.9,034.7,0.200,776.4,01.15,0.508
2014-02-09 02:07:00,4233E-2,5C000495,-0725,1354,7045,999.9,034.7,0.200,776.4,01.15,0.508
2014-02-09 02:08:00,4276E-2,5C000495,-0725,1355,6936,999.9,034.7,0.200,776.4,01.15,0.508
2014-02-09 02:09:00,4235E-2,5C000495,-0725,1356,6989,999.9,034.7,0.200,776.4,01.15,0.508
2014-02-09 02:10:00,4231E-2,5C000495,-0725,1356,6999,999.9,034.7,0.200,776.4,01.15,0.508
2014-02-09 02:11:00,4222E-2,5C000495,-0725,1357,7052,999.9,034.7,0.200,776.4,01.15,0.508
2014-02-09 02:12:00,4233E-2,5C000495,-0725,1357,6963,999.9,034.8,0.200,776.4,01.15,0.508
2014-02-09 02:13:00,4255E-2,5C000495,-0725,1357,6995,999.9,034.7,0.200,776.5,01.15,0.508
2014-02-09 02:14:00,4274E-2,5C000495,-0725,1358,6973,999.9,034.7,0.200,776.5,01.15,0.508
2014-02-09 02:15:00,4244E-2,5C000495,-0725,1358,7008,999.9,034.7,0.200,776.5,01.15,0.508
2014-02-09 02:16:00,4226E-2,5C000495,-0725,1359,6936,999.9,034.7,0.200,776.5,01.15,0.508
2014-02-09 02:17:00,4222E-2,5C000495,-0725,1352,7082,999.9,034.7,0.200,776.5,01.15,0.508
2014-02-09 02:18:00,4229E-2,5C000495,-0725,1350,7016,999.9,034.7,0.200,776.5,01.15,0.508
2014-02-09 02:19:00,4323E-2,5C000495,-0725,1352,7054,999.9,034.7,0.200,776.5,01.15,0.508
2014-02-09 02:20:00,4262E-2,5C000495,-0725,1355,7078,999.9,034.7,0.200,776.5,01.15,0.508
2014-02-09 02:21:00,4193E-2,5C000495,-0725,1357,6890,999.9,034.7,0.200,776.5,01.15,0.508
2014-02-09 02:22:00,4256E-2,5C000495,-0725,1359,6989,999.9,034.7,0.200,776.5,01.15,0.508
2014-02-09 02:23:00,4253E-2,5C000495,-0725,1360,6900,999.9,034.7,0.200,776.5,01.15,0.508
2014-02-09 02:24:00,4246E-2,5C000495,-0725,1361,6976,999.9,034.7,0.200,776.5,01.15,0.508
2014-02-09 02:25:00,4273E-2,5C000495,-0725,1362,6897,999.9,034.7,0.200,776.5,01.15,0.508
2014-02-09 02:26:00,4243E-2,5C000495,-0725,1362,6976,999.9,034.7,0.200,776.5,01.15,0.508
2014-02-09 02:27:00,4209E-2,5C000495,-0725,1363,6928,999.9,034.8,0.200,776.5,01.15,0.508
2014-02-09 02:28:00,4284E-2,5C000495,-0725,1364,6929,999.9,034.8,0.200,776.5,01.15,0.508
2014-02-09 02:29:00,4249E-2,5C000495,-0725,1365,6840,999.9,034.8,0.200,776.5,01.15,0.508
2014-02-09 02:30:00,4235E-2,5C000495,-0725,1365,6867,999.9,034.8,0.200,776.5,01.15,0.508
2014-02-09 02:31:00,4230E-2,5C000495,-0725,1365,6849,999.9,034.8,0.200,776.5,01.15,0.508
2014-02-09 02:32:00,4190E-2,5C000495,-0725,1365,6802,999.9,034.7,0.200,776.5,01.15,0.508
2014-02-09 02:33:00,4191E-2,5C000495,-0725,1366,6817,999.9,034.7,0.200,776.5,01.15,0.508
2014-02-09 02:34:00,4223E-2,5C000495,-0725,1366,6943,999.9,034.8,0.200,776.5,01.15,0.508
2014-02-09 02:35:00,4224E-2,5C000495,-0725,1366,6819,999.9,034.7,0.200,776.5,01.15,0.508
2014-02-09 02:36:00,4219E-2,5C000495,-0725,1366,6852,999.9,034.8,0.200,776.5,01.15,0.508
2014-02-09 02:37:00,4253E-2,5C000495,-0725,1366,6870,999.9,034.8,0.200,776.5,01.15,0.508
2014-02-09 02:38:00,4254E-2,5C000495,-0725,1367,6900,999.9,034.8,0.200,776.5,01.15,0.508
2014-02-09 02:39:00,4272E-2,5C000495,-0725,1367,6817,999.9,034.8,0.200,776.5,01.15,0.508
2014-02-09 02:40:00,4298E-2,5C000495,-0725,1366,6921,999.9,034.8,0.200,776.5,01.15,0.508
2014-02-09 02:41:00,4283E-2,5C000495,-0725,1365,6936,999.9,034.8,0.200,776.5,01.15,0.508
2014-02-09 02:42:00,4296E-2,5C000495,-0725,1366,6838,999.9,034.8,0.200,776.5,01.15,0.508
2014-02-09 02:43:00,4207E-2,5C000495,-0725,1365,6882,999.9,034.8,0.200,776.5,01.15,0.508
2014-02-09 02:44:00,4256E-2,5C000495,-0725,1366,6734,999.9,034.8,0.200,776.5,01.15,0.508
2014-02-09 02:45:00,4239E-2,5C000495,-0725,1366,6877,999.9,034.8,0.200,776.5,01.15,0.508
2014-02-09 02:46:00,4156E-2,5C000495,-0725,1367,6819,999.9,034.8,0.200,776.5,01.15,0.508
2014-02-09 02:47:00,4268E-2,5C000495,-0725,1367,6758,999.9,034.8,0.200,776.5,01.15,0.508
2014-02-09 02:48:00,4166E-2,5C000495,-0725,1368,6817,999.9,034.8,0.200,776.5,01.15,0.508
2014-02-09 02:49:00,4210E-2,5C000495,-0725,1368,6812,999.9,034.8,0.200,776.5,01.15,0.508
2014-02-09 02:50:00,4292E-2,5C000495,-0725,1369,6742,999.9,034.8,0.200,776.5,01.15,0.508
2014-02-09 02:51:00,4282E-2,5C000495,-0725,1369,6716,999.9,034.8,0.200,776.5,01.15,0.508
2014-02-09 02:52:00,4274E-2,5C000495,-0725,1369,6659,999.9,034.7,0.200,776.5,01.15,0.508
2014-02-09 02:53:00,4286E-2,5C000495,-0725,1369,6720,999.9,034.8,0.200,776.5,01.15,0.508
2014-02-09 02:54:00,4346E-2,5C000495,-0725,1369,6681,999.9,034.8,0.200,776.5,01.15,0.508
2014-02-09 02:55:00,4277E-2,5C000495,-0725,1369,6656,999.9,034.8,0.200,776.5,01.15,0.508
2014-02-09 02:56:00,4299E-2,5C000495,-0725,1369,6667,999.9,034.8,0.200,776.5,01.15,0.508
2014-02-09 02:57:00,4289E-2,5C000495,-0725,1370,6693,999.9,034.8,0.200,776.5,01.15,0.508
2014-02-09 02:58:00,4313E-2,5C000495,-0725,1370,6690,999.9,034.8,0.200,776.5,01.15,0.508
2014-02-09 02:59:00,4363E-2,5C000495,-0725,1370,6681,999.9,034.8,0.200,776.5,01.15,0.508
2014-02-09 03:00:00,4302E-2,5C000495,-0725,1370,6560,999.9,034.8,0.200,776.5,01.15,0.508
2014-02-09 03:01:00,4301E-2,5C000495,-0725,1370,6670,999.9,034.8,0.200,776.5,01.15,0.508
2014-02-09 03:02:00,4297E-2,5C000495,-0725,1370,6660,999.9,034.8,0.200,776.5,01.15,0.508
2014-02-09 03:03:00,4269E-2,5C000495,-0725,1370,6602,999.9,034.8,0.200,776.5,01.15,0.508
2014-02-09 03:04:00,4234E-2,5C000495,-0725,1370,6639,999.9,034.8,0.200,776.5,01.15,0.508
2014-02-09 03:05:00,4314E-2,5C000495,-0725,1370,6641,999.9,034.8,0.200,776.5,01.15,0.508
2014-02-09 03:06:00,4318E-2,5C000495,-0725,1370,6555,999.9,034.8,0.200,776.5,01.15,0.508
2014-02-09 03:07:00,4262E-2,5C000495,-0725,1371,6520,999.9,034.8,0.200,776.5,01.15,0.508
2014-02-09 03:08:00,4303E-2,5C000495,-0725,1371,6476,999.9,034.8,0.200,776.5,01.15,0.508
2014-02-09 03:09:00,4246E-2,5C000495,-0725,1370,6558,999.9,034.8,0.200,776.5,01.15,0.508
2014-02-09 03:10:00,4304E-2,5C000495,-0725,1370,6525,999.9,034.8,0.200,776.5,01.15,0.508
2014-02-09 03:11:00,4330E-2,5C000495,-0725,1370,6539,999.9,034.8,0.200,776.5,01.15,0.508
2014-02-09 03:12:00,4325E-2,5C000495,-0725,1371,6537,999.9,034.8,0.200,776.5,01.15,0.508
2014-02-09 03:13:00,4321E-2,5C000495,-0725,1371,6575,999.9,034.9,0.200,776.5,01.15,0.508
2014-02-09 03:14:00,4288E-2,5C000495,-0725,1371,6468,999.9,034.8,0.200,776.5,01.15,0.508
2014-02-09 03:15:00,4299E-2,5C000495,-0725,1371,6549,999.9,034.8,0.200,776.5,01.15,0.508
2014-02-09 03:16:00,4298E-2,5C000495,-0725,1371,6459,999.9,034.9,0.200,776.5,01.15,0.508
2014-02-09 03:17:00,4305E-2,5C000495,-0725,1370,6965,999.9,034.9,0.200,776.5,01.15,0.508
2014-02-09 03:18:00,4325E-2,5C000495,-0725,1365,6858,999.9,034.9,0.200,776.5,01.15,0.508
2014-02-09 03:19:00,4291E-2,5C000495,-0725,1366,6827,999.9,034.8,0.200,776.5,01.15,0.508
2014-02-09 03:20:00,4303E-2,5C000495,-0725,1367,6917,999.9,034.8,0.200,776.5,01.15,0.508
2014-02-09 03:21:00,4299E-2,5C000495,-0725,1368,6785,999.9,034.8,0.200,776.5,01.15,0.508
2014-02-09 03:22:00,4318E-2,5C000495,-0725,1369,6701,999.9,034.8,0.200,776.5,01.15,0.508
2014-02-09 03:23:00,4263E-2,5C000495,-0725,1369,6622,999.9,034.8,0.200,776.5,01.15,0.508
2014-02-09 03:24:00,4359E-2,5C000495,-0725,1370,6650,999.9,034.9,0.200,776.5,01.15,0.508
2014-02-09 03:25:00,4314E-2,5C000495,-0725,1362,6875,999.9,034.9,0.200,776.5,01.15,0.508
2014-02-09 03:26:00,4210E-2,5C000495,-0725,1356,6981,999.9,034.8,0.200,776.5,01.15,0.508
2014-02-09 03:27:00,4201E-2,5C000495,-0725,1355,6904,999.9,034.9,0.200,776.5,01.15,0.508
2014-02-09 03:28:00,4268E-2,5C000495,-0725,1357,6875,999.9,034.8,0.200,776.5,01.15,0.508
2014-02-09 03:29:00,4233E-2,5C000495,-0725,1360,6973,999.9,034.8,0.200,776.5,01.15,0.508
2014-02-09 03:30:00,4206E-2,5C000495,-0725,1361,6907,999.9,034.9,0.200,776.5,01.15,0.508
2014-02-09 03:31:00,4109E-2,5C000495,-0725,1362,7000,999.9,034.9,0.200,776.5,01.15,0.508
2014-02-09 03:32:00,4207E-2,5C000495,-0725,1362,6964,999.9,034.9,0.200,776.5,01.15,0.508
2014-02-09 03:33:00,4217E-2,5C000495,-0725,1362,6884,999.9,034.9,0.199,776.5,01.15,0.508
2014-02-09 03:34:00,4173E-2,5C000495,-0725,1364,6848,999.9,034.9,0.199,776.5,01.15,0.508
2014-02-09 03:35:00,4175E-2,5C000495,-0725,1365,6875,999.9,034.9,0.200,776.5,01.15,0.508
2014-02-09 03:36:00,4178E-2,5C000495,-0725,1366,6810,999.9,034.9,0.200,776.5,01.15,0.508
2014-02-09 03:37:00,4130E-2,5C000495,-0725,1366,6751,999.9,034.9,0.200,776.5,01.15,0.508
2014-02-09 03:38:00,4100E-2,5C000495,-0725,1366,6821,999.9,034.9,0.200,776.5,01.15,0.508
2014-02-09 03:39:00,4112E-2,5C000495,-0725,1367,6828,999.9,034.9,0.199,776.5,01.15,0.508
2014-02-09 03:40:00,4132E-2,5C000495,-0725,1368,6820,999.9,034.9,0.199,776.5,01.15,0.508
2014-02-09 03:41:00,4136E-2,5C000495,-0725,1368,6663,999.9,034.9,0.200,776.5,01.15,0.508
2014-02-09 03:42:00,4101E-2,5C000495,-0725,1368,6773,999.9,034.9,0.200,776.5,01.15,0.508
2014-02-09 03:43:00,4139E-2,5C000495,-0725,1369,6840,999.9,034.9,0.199,776.5,01.15,0.508
2014-02-09 03:44:00,4096E-2,5C000495,-0725,1369,6463,999.9,034.9,0.199,776.5,01.15,0.508
2014-02-09 03:45:00,4059E-2,5C000495,-0725,1370,6718,999.9,034.9,0.199,776.5,01.15,0.508
2014-02-09 03:46:00,4112E-2,5C000495,-0725,1369,6784,999.9,034.9,0.200,776.5,01.15,0.508
2014-02-09 03:47:00,4119E-2,5C000495,-0725,1369,6686,999.9,034.9,0.200,776.5,01.15,0.508
2014-02-09 03:48:00,4101E-2,5C000495,-0725,1369,6707,999.9,034.9,0.200,776.5,01.15,0.508
2014-02-09 03:49:00,4093E-2,5C000495,-0725,1370,6690,999.9,034.9,0.199,776.5,01.15,0.508
2014-02-09 03:50:00,4068E-2,5C000495,-0725,1370,6655,999.9,034.9,0.199,776.6,01.15,0.508
2014-02-09 03:51:00,4028E-2,5C000495,-0725,1370,6526,999.9,034.9,0.199,776.6,01.15,0.508
2014-02-09 03:52:00,4114E-2,5C000495,-0725,1370,6624,999.9,034.9,0.200,776.6,01.15,0.508
2014-02-09 03:53:00,4097E-2,5C000495,-0725,1370,6593,999.9,034.9,0.199,776.6,01.15,0.508
2014-02-09 03:54:00,4070E-2,5C000495,-0725,1370,6634,999.9,034.9,0.199,776.6,01.15,0.508
2014-02-09 03:55:00,4030E-2,5C000495,-0725,1370,6594,999.9,034.9,0.199,776.6,01.15,0.508
2014-02-09 03:56:00,4050E-2,5C000495,-0725,1370,6662,999.9,034.9,0.199,776.6,01.15,0.508
2014-02-09 03:57:00,4103E-2,5C000495,-0725,1370,6643,999.9,034.9,0.199,776.6,01.15,0.508
2014-02-09 03:58:00,4041E-2,5C000495,-0725,1370,6579,999.9,034.9,0.199,776.6,01.15,0.508
2014-02-09 03:59:00,4042E-2,5C000495,-0725,1370,6639,999.9,034.9,0.199,776.6,01.15,0.508
2014-02-09 04:00:00,4041E-2,5C000495,-0725,1370,6568,999.9,034.9,0.199,776.6,01.15,0.508
2014-02-09 04:01:00,4138E-2,5C000495,-0725,1370,6630,999.9,034.9,0.199,776.6,01.15,0.508
2014-02-09 04:02:00,4071E-2,5C000495,-0725,1370,6597,999.9,034.9,0.199,776.6,01.15,0.508
2014-02-09 04:03:00,4034E-2,5C000495,-0725,1370,6449,999.9,034.9,0.199,776.6,01.15,0.508
2014-02-09 04:04:00,4097E-2,5C000495,-0725,1371,6567,999.9,034.9,0.199,776.6,01.15,0.508
2014-02-09 04:05:00,4078E-2,5C000495,-0725,1371,6513,999.9,034.9,0.199,776.6,01.15,0.508
2014-02-09 04:06:00,3987E-2,5C000495,-0725,1371,6472,999.9,034.9,0.199,776.6,01.15,0.508
2014-02-09 04:07:00,4057E-2,5C000495,-0725,1371,6489,999.9,034.9,0.199,776.6,01.15,0.508
2014-02-09 04:08:00,4013E-2,5C000495,-0725,1371,6535,999.9,034.9,0.199,776.6,01.15,0.508
2014-02-09 04:09:00,4040E-2,5C000495,-0725,1371,6503,999.9,034.9,0.199,776.6,01.15,0.508
2014-02-09 04:10:00,4049E-2,5C000495,-0725,1371,6414,999.9,034.9,0.199,776.6,01.15,0.508
2014-02-09 04:11:00,3973E-2,5C000495,-0725,1371,6470,999.9,034.9,0.199,776.6,01.15,0.508
2014-02-09 04:12:00,4028E-2,5C000495,-0725,1371,6536,999.9,034.9,0.199,776.6,01.15,0.508
2014-02-09 04:13:00,4013E-2,5C000495,-0725,1371,6415,999.9,034.9,0.199,776.6,01.15,0.508
2014-02-09 04:14:00,4010E-2,5C000495,-0725,1371,6375,999.9,035.0,0.199,776.6,01.15,0.508
2014-02-09 04:15:00,4025E-2,5C000495,-0725,1371,6276,999.9,035.0,0.199,776.6,01.15,0.508
2014-02-09 04:16:00,3999E-2,5C000495,-0725,1371,6410,999.9,034.9,0.199,776.6,01.15,0.508
2014-02-09 04:17:00,3953E-2,5C000495,-0725,1371,6423,999.9,035.0,0.199,776.6,01.15,0.508
2014-02-09 04:18:00,4022E-2,5C000495,-0725,1371,6431,999.9,035.0,0.199,776.6,01.15,0.508
2014-02-09 04:19:00,4029E-2,5C000495,-0725,1371,6377,999.9,035.0,0.199,776.6,01.15,0.508
2014-02-09 04:20:00,3972E-2,5C000495,-0725,1371,6371,999.9,035.0,0.199,776.6,01.15,0.508
2014-02-09 04:21:00,3979E-2,5C000495,-0725,1371,6382,999.9,034.9,0.199,776.6,01.15,0.508
2014-02-09 04:22:00,3994E-2,5C000495,-0725,1371,6557,999.9,035.0,0.199,776.6,01.15,0.508
2014-02-09 04:23:00,4004E-2,5C000495,-0725,1371,6444,999.9,035.0,0.199,776.6,01.15,0.508